This is the latest recevied weather packets stored in our database for station/object KF7SOJ. If no packets are shown the sender has not sent any weather packets the latest 10 day(s).
| Time | Temp. | Humidity | Pressure | Rain* | Wind** | Luminosity | Snow |
|---|---|---|---|---|---|---|---|
| 1788327104 | 18.89° C | 44% | 926.9 hPa | 0 mm | - | 0 W/m² | - |
| 1788326803 | 18.89° C | 44% | 926.9 hPa | 0 mm | - | 0 W/m² | - |
| 1788326499 | 19.44° C | 43% | 926.9 hPa | 0 mm | - | 0 W/m² | - |
| 1788326198 | 20° C | 42% | 927 hPa | 0 mm | - | 0 W/m² | - |
| 1788325893 | 20° C | 42% | 926.9 hPa | 0 mm | - | 0 W/m² | - |
| 1788325593 | 20° C | 42% | 927 hPa | 0 mm | - | 0 W/m² | - |
| 1788325289 | 20° C | 42% | 927 hPa | 0 mm | - | 0 W/m² | - |
| 1788324984 | 19.44° C | 43% | 926.9 hPa | 0 mm | - | 0 W/m² | - |
| 1788324680 | 20° C | 43% | 927.3 hPa | 0 mm | - | 0 W/m² | - |
| 1788324380 | 20.56° C | 41% | 927.1 hPa | 0 mm | - | 0 W/m² | - |
| 1788324076 | 21.11° C | 39% | 927.2 hPa | 0 mm | - | 0 W/m² | - |
| 1788323771 | 21.67° C | 37% | 927.1 hPa | 0 mm | - | 0 W/m² | - |
| 1788323466 | 21.67° C | 37% | 927.5 hPa | 0 mm | - | 0 W/m² | - |
| 1788323165 | 21.67° C | 37% | 927.2 hPa | 0 mm | - | 0 W/m² | - |
| 1788322861 | 21.67° C | 37% | 927.3 hPa | 0 mm | - | 0 W/m² | - |
| 1788322560 | 21.67° C | 37% | 927.1 hPa | 0 mm | - | 0 W/m² | - |
| 1788322256 | 21.67° C | 36% | 927.5 hPa | 0 mm | - | 0 W/m² | - |
| 1788321955 | 22.22° C | 35% | 927.4 hPa | 0 mm | - | 0 W/m² | - |
| 1788321650 | 22.78° C | 35% | 927.3 hPa | 0 mm | - | 0 W/m² | - |
| 1788321348 | 22.22° C | 35% | 927.4 hPa | 0 mm | - | 0 W/m² | - |
| 1788321044 | 22.22° C | 35% | 927.3 hPa | 0 mm | - | 0 W/m² | - |
| 1788320743 | 22.78° C | 35% | 927.4 hPa | 0 mm | - | 0 W/m² | - |
| 1788320443 | 22.78° C | 35% | 927.3 hPa | 0 mm | - | 0 W/m² | - |
| 1788320142 | 22.22° C | 35% | 927.3 hPa | 0 mm | - | 0 W/m² | - |
| 1788319837 | 22.22° C | 35% | 927.5 hPa | 0 mm | - | 0 W/m² | - |
* Rain latest hour (hover to see other rain measurements)
** Current wind speed in m/s (hover to see current wind gust speed)